< < Back
Terminal Aerodrome Forecast


Current Version              Previous Versions:   1  2  3  4  5  6  7  8  9  

Terminal Aerodrome Forecast

391
FTUS42 KGSP 230500
TAFGSP
TAF
KGSP 230529Z 2306/2406 VRB03KT 3SM BR FEW250
      TEMPO 2306/2310 00000KT 1SM BR
     FM231000 31004KT P6SM FEW250
     FM232300 03005KT P6SM SKC=

Latest METAR

391
SAUS70 KWBC 231900 RRD
MTRGSP
METAR KGSP 231853Z 35008KT 10SM CLR 25/M02 A2987 RMK AO2 SLP107
T02501017


USA.gov is the U.S. government's official web portal to all federal, state and local government web resources and services.